Regional Weather Roundup
Issued by NWS

Home | Current Version | Previous Version | Graphics & Text | Print | Product List | Glossary Off
Versions: 1 2 3 4 5 6 7 8 9 10 11 12 13 14 15 16 17 18 19 20 21 22 23 24 25 26 27 28 29 30 31 32 33 34 35 36 37 38 39 40 41 42 43 44 45 46 47 48 49 50

000
ASUS43 KDTX 020610
RWRMI
MICHIGAN HOURLY REGIONAL WEATHER ROUNDUP
NATIONAL WEATHER SERVICE DETROIT/PONTIAC MI
200 AM EDT WED SEP 02 2015

NOTE: "FAIR" INDICATES FEW OR NO CLOUDS BELOW 12,000 FEET WITH NO
SIGNIFICANT WEATHER AND/OR OBSTRUCTION TO VISIBILITY.

MIZ047>049-052>055-059>063-066>070-074>076-081>083-020700-
SOUTHEAST LOWER MICHIGAN

CITY           SKY/WX    TMP DP  RH WIND       PRES   REMARKS
ADRIAN           N/A     68  66  93 SW3       30.08F
6HR MIN TEMP:  68; 6HR MAX TEMP:  81;

ALMA           MOCLDY    72  71  97 S3        30.05S FOG
ANN ARBOR        N/A     68  65  90 W3        30.07S FOG
BAD AXE          N/A     67  67  98 CALM      30.04F FOG
DETROIT CITY     N/A     75  68  78 SW3       30.06S
6HR MIN TEMP:  75; 6HR MAX TEMP:  83;

DETROIT          N/A     73  68  84 S6        30.07S
6HR MIN TEMP:  73; 6HR MAX TEMP:  82;

FLINT            N/A     74  67  78 SW5       30.06S
6HR MIN TEMP:  73; 6HR MAX TEMP:  84;

GROSSE ILE       N/A     73  70  88 CALM      30.05F
HILLSDALE        N/A     73  72  97 W3        30.09F
6HR MIN TEMP:  73; 6HR MAX TEMP:  79;

HOWELL           N/A     72  68  87 SW3       30.07S
6HR MIN TEMP:  72; 6HR MAX TEMP:  81;


CITY           SKY/WX    TMP DP  RH WIND       PRES   REMARKS
JACKSON          N/A     71  69  93 SW6       30.08S
6HR MIN TEMP:  70; 6HR MAX TEMP:  79;

LAMBERTVILLE     N/A     75  68  79 W3        30.08S
6HR MIN TEMP:  74; 6HR MAX TEMP:  81;

LANSING          N/A     73  68  84 SW3       30.06F
6HR MIN TEMP:  73; 6HR MAX TEMP:  81;

LAPEER         NOT AVBL
MASON            N/A     71  66  84 CALM      30.07S
MT. CLEMENS      N/A     70  68  93 CALM      30.04S FOG
6HR MIN TEMP:  70; 6HR MAX TEMP:  77;

PONTIAC          N/A     72  68  87 CALM      30.06F
6HR MIN TEMP:  71; 6HR MAX TEMP:  83;

PORT HOPE        N/A     73  68  84 SW5       30.01F
6HR MIN TEMP:  72; 6HR MAX TEMP:  74;

PORT HURON     FOG       66  66 100 CALM      30.05F VSB 1/2
TRI CITIES       N/A     73  69  87 SW5       30.04F
6HR MIN TEMP:  72; 6HR MAX TEMP:  82;

YPSILANTI        N/A     70  66  87 S5        30.07S
6HR MIN TEMP:  70; 6HR MAX TEMP:  82;

$$
MIZ043>046-050>051-056>058-064>065-071>073-077>080-020700-
SOUTHWEST LOWER MICHIGAN

CITY           SKY/WX    TMP DP  RH WIND       PRES   REMARKS
BATTLE CREEK     N/A     73  69  87 SW6       30.08S
6HR MIN TEMP:  72; 6HR MAX TEMP:  81;

BENTON HARBOR    N/A     74  69  85 S5        30.05S
6HR MIN TEMP:  74; 6HR MAX TEMP:  81;

COLDWATER        N/A     71  69  94 SW3       30.08F
6HR MIN TEMP:  71; 6HR MAX TEMP:  77;

HOLLAND          N/A     78  71  79 SW15      30.04F
6HR MIN TEMP:  72; 6HR MAX TEMP:  80;

GRAND RAPIDS   MOCLDY    75  71  87 SW6       30.05S
6HR MIN TEMP:  72; 6HR MAX TEMP:  82;

KALAMAZOO        N/A     72  68  87 SW5       30.07F
6HR MIN TEMP:  72; 6HR MAX TEMP:  81;

MARSHALL         N/A     72  69  89 SW3       30.07F
6HR MIN TEMP:  71; 6HR MAX TEMP:  80;

MUSKEGON         N/A     75  70  84 SW14      30.02S
6HR MIN TEMP:  75; 6HR MAX TEMP:  79;

$$
MIZ016>042-020700-
NORTHERN LOWER MICHIGAN

CITY           SKY/WX    TMP DP  RH WIND       PRES   REMARKS
ALPENA           N/A     70  66  87 SW3       30.00F
6HR MIN TEMP:  68; 6HR MAX TEMP:  74;

BEAVER ISLAND    N/A     72  69  89 SW9       29.97F
6HR MIN TEMP:  71; 6HR MAX TEMP:  73;

BELLAIRE         N/A     69  67  94 CALM      29.99F FOG
6HR MIN TEMP:  68; 6HR MAX TEMP:  82;

CADILLAC       FOG       68  67  97 CALM      30.04S VSB 3/4
CHARLEVOIX     MOCLDY    75  71  86 S7        30.00F
6HR MIN TEMP:  74; 6HR MAX TEMP:  76;

FRANKFORT        N/A     73  70  92 CALM      29.99S
GAYLORD          N/A     71  70  96 SW5       30.03F FOG
6HR MIN TEMP:  71; 6HR MAX TEMP:  80;

GRAYLING         N/A     71  69  94 SW3       30.04S FOG
6HR MIN TEMP:  68; 6HR MAX TEMP:  78;

HARBOR SPRINGS   N/A     70  68  94 CALM      29.98F
HOUGHTON LAKE    N/A     71  69  93 CALM      30.04F FOG
6HR MIN TEMP:  68; 6HR MAX TEMP:  78;

MANISTEE       MOCLDY    72  66  83 E3        30.00F
OSCODA           N/A     69  67  96 SW5       30.01S FOG
6HR MIN TEMP:  67; 6HR MAX TEMP:  78;

PELLSTON         N/A     70  67  90 CALM      29.98F
6HR MIN TEMP:  67; 6HR MAX TEMP:  80;

TRAVERSE CITY    N/A     76  70  82 VRB5      29.98F
6HR MIN TEMP:  76; 6HR MAX TEMP:  84;

$$
MIZ007>008-015-020700-
EASTERN UPPER MICHIGAN

CITY           SKY/WX    TMP DP  RH WIND       PRES   REMARKS
KINROSS          N/A     70  70 100 CALM      29.97F
6HR MIN TEMP:  70; 6HR MAX TEMP:  79;

MACKINAC ISLAN   N/A     68  67  94 SW3       29.98S FOG
NEWBERRY         N/A     67  67  99 SW7       29.96S FOG
6HR MIN TEMP:  67; 6HR MAX TEMP:  74;

S. S. MARIE    CLOUDY    68  66  93 E5        29.96F FOG
6HR MIN TEMP:  68; 6HR MAX TEMP:  79;

$$
MIZ004>006-011>014-085-020700-
CENTRAL UPPER MICHIGAN

CITY           SKY/WX    TMP DP  RH WIND       PRES   REMARKS
MANISTIQUE       N/A     65  64  97 S3        29.95F FOG
6HR MIN TEMP:  64; 6HR MAX TEMP:  67;

ESCANABA         N/A     64  63  94 CALM      29.94F VSB 3/4
6HR MIN TEMP:  64; 6HR MAX TEMP:  73;

MENOMINEE        N/A     73  66  78 CALM      29.95S
6HR MIN TEMP:  73; 6HR MAX TEMP:  81;

SAWYER-GWINN     N/A     66  64  93 CALM      29.97S FOG
6HR MIN TEMP:  66; 6HR MAX TEMP:  82;

$$
MIZ001>003-009>011-084-020700-
WESTERN UPPER MICHIGAN

CITY           SKY/WX    TMP DP  RH WIND       PRES   REMARKS
IRON MOUNTAIN    N/A     69  66  90 CALM      29.96F FOG
6HR MIN TEMP:  67; 6HR MAX TEMP:  80;

HOUGHTON       FOG       65  63  93 W3        29.95S VSB 1/4
6HR MIN TEMP:  65; 6HR MAX TEMP:  73;

IRONWOOD         N/A     66  64  94 CALM      29.93S VSB<1/4
6HR MIN TEMP:  66; 6HR MAX TEMP:  79;

$$

ABBREVIATIONS USED IN REMARKS
   TC - TEMPERATURE IN CELSIUS
  WCI - WIND CHILL INDEX
   HX - HEAT INDEX
  VSB - VISIBILITY



USA.gov is the U.S. government's official web portal to all federal, state and local government web resources and services.